Preview of NWS' New Version of Forecast
This preview is not operational and should not be used for support decisions.
Latest weather observations around

Albany, Southwest Georgia Regional Airport (KABY)

Using English Units (Switch to International System of Units)
Date/ Time (EDT) Wind (mph) Vis. (mi) Weather Sky Cond. Temp (°F) Rel. Humidity Wind Chill (°F) Heat Index (°F) Pressure Precip. (in)
Air Dwpt 6 hour Altimeter (inHg) Sea level (inHg) 1 hr 3 hr 6 hr
Max Min
Jun 18 15:53 SSW 7 10 Mostly Clear FEW043 89 71     55%   95   29.95      
Jun 18 14:53 S 8 10 Mostly Clear FEW046 FEW060 89 71     55%   95   29.96      
Jun 18 13:53 S 5 10 Mostly Cloudy BKN034 BKN048 88 71     57%   94   29.97      
Jun 18 13:00 3 10 Mostly Cloudy BKN034 BKN048 89 72     57%   96          
Jun 18 12:53 Calm 10 Mostly Cloudy BKN023 BKN039 88 71     57%   94   29.99      
Jun 18 11:53 SSE 5 10 Mostly Cloudy BKN023 BKN050 87 72     61%   94   30.01      
Jun 18 10:53 SW 6 10 Mostly Cloudy BKN023 85 73     68%   92   30.02      
Jun 18 10:00 Calm 10 Mostly Cloudy BKN016 81 72     74%   85          
Jun 18 09:53 6 10 Mostly Cloudy BKN010 82 73     74%   87   30.02      
Jun 18 09:18 Calm 10 Mostly Cloudy BKN010 80 73     79%   84          
Jun 18 08:53 5 10 Mostly Cloudy BKN006 78 72     82%   79   30.03      
Jun 18 08:21 SSE 5 10 Mostly Cloudy BKN006 76 72     88%   77 30.04        
Jun 18 07:53 SE 3 10 Clear CLR 75 71     88%   76 30.04 30.03      
Jun 18 06:53 Calm 10 Clear CLR 73 70     90%   74   30.02      
Jun 18 05:53 Calm 10 Clear CLR 73 70     90%   74   30.01      
Jun 18 04:53 Calm 10 Mostly Clear FEW043 74 70     87%   75 30.01 30      
Jun 18 03:53 Calm 10 Partly Cloudy SCT032 74 70     87%   75 30.01 30      
Jun 18 02:53 ESE 3 10 Mostly Clear FEW035 75 70     84%   76 30.02 30.01      
Jun 18 01:53 SE 3 10 Clear CLR 75 70     84%   76 30.04 30.03      
Jun 18 00:53 S 5 10 Clear CLR 77 70     79%   78 30.05 30.04      
Jun 17 23:53 SSE 8 10 Cloudy FEW060 OVC080 78 70     76%   79 30.06 30.05      
Jun 17 22:53 SE 7 10 Partly Cloudy FEW045 SCT055 SCT070 79 71     77%   82 30.06 30.05      
Jun 17 21:53 SSE 10 10 Clear CLR 81 70     69%   84 30.03 30.02      
Jun 17 20:53 SSE 5 10 Clear CLR 84 69     61%   88 30 29.99      
Jun 17 19:53 SSW 6 10 Clear CLR 88 68     52%   92 30 30      
Jun 17 18:53 SSE 7 10 Mostly Clear FEW065 90 70     52%   95 29.98 29.97      
Jun 17 17:53 SE 11 10 Partly Cloudy SCT050 91 69     49%   96 29.98 29.97      
Jun 17 16:53 SSE 9 10 Mostly Cloudy BKN050 92 69     47%   97 30 29.99      
Jun 17 15:53 SSW 10 10 Mostly Cloudy BKN049 92 69     47%   97 30.02 30.01      
Jun 17 14:54 5 10 Mostly Cloudy BKN045 91 70     50%   97 30.03        
Jun 17 14:53 3 10 Mostly Clear FEW045 91 70     50%   97 30.03 30.02      
Jun 17 13:53 SSE 9 10 Mostly Cloudy BKN044 90 70     52%   95 30.06 30.05      
Jun 17 12:53 E 8 10 Mostly Cloudy BKN040 90 70     52%   95   30.06      
Jun 17 11:53 SE 7 10 Mostly Cloudy BKN033 BKN043 88 70     55%   93 30.08 30.07      
Jun 17 10:56 Calm 10 Mostly Cloudy BKN024 85 72     65%   91 30.09        
Jun 17 10:53 3 10 Mostly Clear FEW024 85 72     65%   91 30.08 30.08      
Jun 17 09:53 Calm 10 Clear CLR 83 71     67%   88 30.08 30.07      
Jun 17 08:53 SE 5 10 Clear CLR 79 70     74%   82 30.06 30.06      
Jun 17 07:53 S 5 10 Clear CLR 76 70     82%   77 30.05 30.04      
Jun 17 06:53 Calm 10 Clear CLR 73 69     87%   74 30.04 30.03      
Jun 17 05:53 Calm 10 Clear CLR 73 69     87%   74 30.03 30.02      
Jun 17 04:53 SSE 3 10 Clear CLR 73 68     84%   74   30.01      
Jun 17 03:53 SE 3 10 Clear CLR 74 68     82%   75   30.02      
Jun 17 02:53 Calm 10 Clear CLR 75 68     79%   76 30.05 30.04      
Jun 17 01:53 E 5 10 Clear   76 69     79%   77 30.06 30.05     0
Jun 17 00:53 Calm 10 Clear CLR 79 68     69%   80 30.04 30.03      
Jun 16 23:53 S 7 10 Clear CLR 79 70     74%   82 30.04 30.03      
Jun 16 22:53 SSE 7 10 Clear CLR 81 70     69%   84 30.04 30.03   0  
Jun 16 21:53 Calm 10 Mostly Cloudy BKN090 82 67     60%   85 30.02 30.01 0    
Jun 16 20:53 SSE 14 10 Light Rain FEW034 BKN095 BKN110 80 69     69%   83 30.02 30.01 0    
Jun 16 19:53 SSE 7 10 Clear CLR 89 69     52%   94 30 29.99      
Jun 16 18:53 SSE 7 10 Clear CLR 91 68     47%   95 29.98 29.97      
Jun 16 17:53 S 8 10 Partly Cloudy SCT055 SCT070 91 67     45%   94 29.98 29.98      
Jun 16 16:53 E 8 10 Clear CLR 93 69     46%   98 29.99 29.98      
Jun 16 15:53 Calm 10 Mostly Cloudy BKN055 BKN090 94 67     41%   98 30.01 30      
Jun 16 14:53 3 10 Mostly Cloudy BKN055 91 67     45%   94 30.03 30.02      
Jun 16 13:54 Calm 10 Mostly Cloudy BKN055 91 69     49%   96 30.06        
Jun 16 13:53 Calm 10 Clear CLR 91 69     49%   96 30.06 30.05      
Jun 16 12:53 W 5 10 Mostly Cloudy BKN042 89 70     53%   94 30.09 30.08      
Jun 16 11:53 W 3 10 Mostly Cloudy BKN035 86 70     59%   91 30.11 30.1      
Jun 16 10:53 3 10 Mostly Cloudy BKN030 87 71     59%   93 30.11 30.1      
Jun 16 09:53 N 3 10 Clear CLR 85 71     63%   90 30.12 30.11      
Jun 16 08:53 Calm 10 Clear CLR 80 71     74%   84 30.1 30.09      
Jun 16 07:53 Calm 9 Clear CLR 74 69     85%   75 30.08 30.07      
Jun 16 06:53 Calm 9 Clear CLR 71 67     87%   72 30.05 30.04      
Jun 16 05:53 Calm 10 Clear CLR 72 67     84%   73 30.04 30.03      
Jun 16 04:53 Calm 10 Clear CLR 72 67     84%   73 30.04 30.03      
Jun 16 03:53 Calm 10 Clear CLR 73 67     81%   74 30.04 30.03      
Jun 16 02:53 SSE 5 10 Clear CLR 74 67     79%   75 30.06 30.05      
Jun 16 01:53 SE 6 10 Clear CLR 75 66     74%   76 30.08 30.07      
Jun 16 00:53 SE 5 10 Clear CLR 75 66     74%   76 30.08 30.07      
Jun 15 23:53 Calm 10 Clear CLR 76 66     71%   77   30.09      
Jun 15 22:53 Calm 10 Clear CLR 76 65     69%   76   30.09      
Jun 15 21:53 ESE 3 10 Clear CLR 80 65     60%   82   30.07      
Jun 15 20:53 ESE 5 10 Clear CLR 83 64     53%   84   30.06      
Jun 15 19:53 E 5 10 Clear CLR 87 63     45%   88   30.05      
Jun 15 18:53 ESE 5 10 Clear CLR 89 63     42%   90   30.06      
Jun 15 17:53 SE 5 10 Clear CLR 88 63     43%   89   30.07      
Jun 15 16:53 SE 8 10 Mostly Clear FEW055 89 65     45%   91   30.07      
Jun 15 15:53 SSE 9 10 Partly Cloudy SCT055 90 66     45%   93   30.09      
May 15 11:53 E 8 10 Cloudy SCT021 BKN029 OVC040 78 68     71%   79   29.98      
May 15 11:41 ESE 8 10 Cloudy FEW021 BKN029 OVC041 80 68     67%   83          
May 13 09:53 6 10 Clear CLR 81 66     61%   83   30.12      
May 12 19:53 NNW 6 10 Partly Cloudy SCT085 SCT100 91 62     38%   92   30.03      
May 12 01:53 Calm 10 Partly Cloudy SCT110 75 66     74%   76   30.09     0
May 12 00:53 Calm 10 Cloudy OVC085 79 65     62%   80   30.11      
Notice The following observation data may not be complete
May 11 21:53 Calm 10 Light Rain OVC080   62      %     30.08 30.07 0    
May 11 16:53     Mostly Cloudy BKN075 93 57     30%   92          
May 11 14:20   10 Mostly Cloudy BKN060 93 61     34%   93 30.1        
May 11 09:53 WNW 6 10 Clear CLR 81 61     51%   81 30.15        
Jun 11 17:53 S 6 10 Clear CLR 83 74     74%   89 30.14 30.13      
Jun 11 13:53 SSE 9 10 Cloudy BKN028 BKN041 OVC070 84 74     72%   91 30.19 30.18      
Jun 11 12:53 SSE 8 10 Cloudy BKN028 BKN041 OVC070 86 74     67%   94 30.19 30.18      
Jun 09 05:53 Calm 10 Clear CLR 63 61     93%     29.92 29.92      
Jun 09 01:53 Calm 10 Clear CLR 66 63     90%     29.92 29.91      
Jun 08 19:53 N 5 10 Clear   81 59     47%   81 29.86 29.85      
Jun 08 10:56 E 10 10 Mostly Cloudy BKN027 75 62     64%   75 29.9        
Jun 08 10:53 ENE 9 10 Mostly Cloudy BKN020 75 62     64%   75 29.9 29.9      
Jun 08 07:23 NNE 10 10 Mostly Cloudy SCT015 BKN100 66 62     87%     29.86        
Jun 08 05:53 NNE 6 10 Mostly Cloudy BKN020 BKN100 65 62     90%     29.82 29.82      
Jun 08 01:53 N 5 10 Mostly Cloudy BKN020 BKN100 69 66     90%     29.82 29.82      
Jun 07 12:53 NE 15 6 Clear   73 71     94%   74 29.77 29.76 0    
Jun 06 03:53 S 3 10 Cloudy OVC060 74 73     97%   76 29.81 29.8